Change the Weather History Date:

Friday, June 7, 2013

  Actual Average (KMTJ) Record (KMTJ)
Temperature  
Mean Temperature 73 °F 66 °F  
Max Temperature 91 °F 82 °F 93 °F (2002)
Min Temperature 55 °F 49 °F 37 °F (2007)
Degree Days  
Heating Degree Days 0 2  
Month to date heating degree days 20  
Since 1 June heating degree days 20  
Since 1 July heating degree days 6184  
Cooling Degree Days 8 3  
Month to date cooling degree days 17  
Year to date cooling degree days 34  
Since 1 June cooling degree days 17  
Growing Degree Days 23 (Base 50)    
Moisture  
Dew Point 31 °F    
Average Humidity 23    
Maximum Humidity 47    
Minimum Humidity 9    
Precipitation  
Precipitation 0.00 in 0.02 in 0.42 in (1997)
Month to date precipitation 0.16  
Year to date precipitation 4.46  
Sea Level Pressure  
Sea Level Pressure 30.00 in    
Wind  
Wind Speed 6 mph (NNW)    
Max Wind Speed 23 mph    
Max Gust Speed 33 mph    
Visibility 10 miles    
Events      
T = Trace of Precipitation, MM = Missing Value Source: NWS Daily Summary

Daily Weather History Graph

Daily Weather History Graph

Search for Another Location

Airport or City:

Trip Planner

Search our weather history database for the weather conditions in past years. The results will help you decide how hot, cold, wet, or windy it might be!

Date:

Astronomy

Jun. 07, 2013 Rise Set
Actual Time 5:47 AM MDT 8:35 PM MDT
Civil Twilight 5:15 AM MDT 9:07 PM MDT
Nautical Twilight 4:35 AM MDT 9:46 PM MDT
Astronomical Twilight 3:50 AM MDT 10:32 PM MDT
Moon 5:11 AM MDT (6/7) 7:52 PM MDT (6/7)
Length of Visible Light 15h 51m
Length of Day
14h 48m
Waning Crescent, 1% of the Moon is Illuminated
Jun 7
Waning Crescent
Jun 8
New
Jun 16
First Quarter
Jun 23
Full
Jun 29
Last Quarter

Hourly Weather History & Observations

Time (MDT) Temp. Dew Point Humidity Pressure Visibility Wind Dir Wind Speed Gust Speed Precip Events Conditions
12:15 AM 70.3 °F 29.8 °F 22% 30.03 in 10.0 mi NE 6.9 mph - N/A   Clear
12:35 AM 69.8 °F 30.7 °F 23% 30.04 in 10.0 mi Calm Calm - N/A   Clear
12:55 AM 69.1 °F 30.9 °F 24% 30.04 in 10.0 mi East 4.6 mph - N/A   Clear
1:15 AM 67.1 °F 31.8 °F 27% 30.04 in 10.0 mi NNE 5.8 mph - N/A   Clear
1:35 AM 65.7 °F 32.5 °F 29% 30.05 in 10.0 mi Calm Calm - N/A   Clear
1:55 AM 63.3 °F 34.9 °F 35% 30.05 in 10.0 mi ENE 5.8 mph - N/A   Clear
2:15 AM 63.5 °F 32.0 °F 31% 30.05 in 10.0 mi NE 6.9 mph - N/A   Clear
2:35 AM 62.1 °F 32.0 °F 32% 30.05 in 10.0 mi ENE 5.8 mph - N/A   Clear
2:55 AM 61.7 °F 31.8 °F 33% 30.05 in 10.0 mi ENE 6.9 mph - N/A   Clear
3:15 AM 60.8 °F 32.0 °F 34% 30.06 in 10.0 mi Calm Calm - N/A   Clear
3:35 AM 60.6 °F 33.6 °F 36% 30.06 in 10.0 mi Calm Calm - N/A   Clear
3:55 AM 61.3 °F 32.0 °F 33% 30.06 in 10.0 mi ESE 3.5 mph - N/A   Clear
4:15 AM 59.5 °F 32.4 °F 36% 30.06 in 10.0 mi East 4.6 mph - N/A   Clear
4:35 AM 56.5 °F 34.7 °F 44% 30.06 in 10.0 mi Calm Calm - N/A   Clear
4:55 AM 56.8 °F 36.5 °F 47% 30.06 in 10.0 mi Calm Calm - N/A   Clear
5:15 AM 58.5 °F 33.8 °F 39% 30.06 in 10.0 mi Calm Calm - N/A   Clear
5:35 AM 57.4 °F 33.1 °F 40% 30.07 in 10.0 mi South 3.5 mph - N/A   Clear
5:55 AM 55.8 °F 33.3 °F 43% 30.07 in 10.0 mi Calm Calm - N/A   Clear
6:15 AM 55.4 °F 34.7 °F 46% 30.07 in 10.0 mi Calm Calm - N/A   Clear
6:35 AM 57.4 °F 33.8 °F 41% 30.08 in 10.0 mi Calm Calm - N/A   Clear
6:55 AM 59.4 °F 37.0 °F 43% 30.09 in 10.0 mi NNE 3.5 mph - N/A   Clear
7:15 AM 60.6 °F 35.8 °F 40% 30.09 in 10.0 mi Calm Calm - N/A   Clear
7:35 AM 60.8 °F 33.8 °F 36% 30.09 in 10.0 mi East 3.5 mph - N/A   Clear
7:55 AM 62.8 °F 33.8 °F 34% 30.09 in 10.0 mi NE 5.8 mph - N/A   Clear
8:15 AM 63.7 °F 35.4 °F 35% 30.09 in 10.0 mi ENE 3.5 mph - N/A   Clear
8:35 AM 64.0 °F 36.1 °F 36% 30.09 in 10.0 mi SE 3.5 mph - N/A   Clear
8:55 AM 66.4 °F 36.0 °F 33% 30.09 in 10.0 mi ENE 3.5 mph - N/A   Clear
9:15 AM 68.0 °F 35.8 °F 31% 30.09 in 10.0 mi Calm Calm - N/A   Clear
9:35 AM 69.8 °F 34.3 °F 27% 30.08 in 10.0 mi Calm Calm - N/A   Mostly Cloudy
9:55 AM 71.6 °F 33.6 °F 25% 30.08 in 10.0 mi Calm Calm - N/A   Scattered Clouds
10:15 AM 74.1 °F 34.0 °F 23% 30.07 in 10.0 mi Calm Calm - N/A   Clear
10:35 AM 76.5 °F 33.4 °F 21% 30.06 in 10.0 mi Calm Calm - N/A   Clear
10:55 AM 78.1 °F 35.1 °F 21% 30.06 in 10.0 mi Calm Calm - N/A   Clear
11:15 AM 79.0 °F 34.5 °F 20% 30.05 in 10.0 mi SSW 8.1 mph - N/A   Clear
11:35 AM 80.6 °F 34.2 °F 19% 30.04 in 10.0 mi SSW 5.8 mph - N/A   Clear
11:55 AM 81.9 °F 34.5 °F 18% 30.04 in 10.0 mi SSE 4.6 mph - N/A   Clear
12:15 PM 84.9 °F 31.6 °F 15% 30.02 in 10.0 mi Calm Calm - N/A   Clear
12:35 PM 87.6 °F 25.7 °F 11% 30.02 in 10.0 mi WNW 13.8 mph 21.9 mph N/A   Clear
12:55 PM 87.6 °F 26.4 °F 11% 30.01 in 10.0 mi WNW 19.6 mph 25.3 mph N/A   Clear
1:15 PM 88.7 °F 24.4 °F 10% 30.00 in 10.0 mi West 18.4 mph 25.3 mph N/A   Clear
1:35 PM 88.5 °F 25.3 °F 10% 29.98 in 10.0 mi WSW 19.6 mph 28.8 mph N/A   Clear
1:55 PM 88.7 °F 27.1 °F 11% 29.98 in 10.0 mi West 11.5 mph 25.3 mph N/A   Clear
2:15 PM 90.5 °F 28.6 °F 11% 29.98 in 10.0 mi WNW 16.1 mph 20.7 mph N/A   Clear
2:35 PM 89.8 °F 28.2 °F 11% 29.97 in 10.0 mi WSW 18.4 mph 24.2 mph N/A   Clear
2:55 PM 90.3 °F 28.2 °F 11% 29.96 in 10.0 mi WNW 20.7 mph 27.6 mph N/A   Scattered Clouds
3:15 PM 90.7 °F 28.4 °F 11% 29.96 in 10.0 mi West 17.3 mph 25.3 mph N/A   Clear
3:35 PM 89.1 °F 28.4 °F 11% 29.95 in 10.0 mi West 18.4 mph 26.5 mph N/A   Scattered Clouds
3:55 PM 90.9 °F 29.3 °F 11% 29.95 in 10.0 mi WNW 23.0 mph 33.4 mph N/A   Scattered Clouds
4:15 PM 91.0 °F 28.9 °F 11% 29.95 in 10.0 mi WNW 15.0 mph 26.5 mph N/A   Clear
4:35 PM 90.7 °F 27.9 °F 10% 29.94 in 10.0 mi WNW 15.0 mph 21.9 mph N/A   Clear
4:55 PM 91.0 °F 27.1 °F 10% 29.93 in 10.0 mi WNW 9.2 mph 16.1 mph N/A   Clear
5:15 PM 90.5 °F 26.4 °F 10% 29.92 in 10.0 mi NNW 9.2 mph 23.0 mph N/A   Clear
5:35 PM 90.3 °F 24.8 °F 9% 29.92 in 10.0 mi WNW 11.5 mph 16.1 mph N/A   Clear
5:55 PM 91.4 °F 24.6 °F 9% 29.91 in 10.0 mi WNW 19.6 mph 23.0 mph N/A   Clear
6:15 PM 90.7 °F 25.0 °F 9% 29.91 in 10.0 mi WNW 11.5 mph 20.7 mph N/A   Clear
6:35 PM 90.3 °F 25.3 °F 10% 29.91 in 10.0 mi NW 9.2 mph 16.1 mph N/A   Clear
6:55 PM 89.8 °F 26.2 °F 10% 29.91 in 10.0 mi NNW 6.9 mph - N/A   Clear
7:15 PM 88.7 °F 25.7 °F 10% 29.91 in 10.0 mi West 12.7 mph 18.4 mph N/A   Clear
7:35 PM 87.3 °F 25.7 °F 11% 29.91 in 10.0 mi West 11.5 mph - N/A   Clear
7:55 PM 87.1 °F 26.1 °F 11% 29.91 in 10.0 mi WNW 6.9 mph - N/A   Clear
8:15 PM 85.5 °F 26.6 °F 12% 29.91 in 10.0 mi North 5.8 mph - N/A   Clear
8:35 PM 80.1 °F 30.7 °F 17% 29.91 in 10.0 mi North 6.9 mph - N/A   Clear
8:55 PM 79.0 °F 28.9 °F 16% 29.91 in 10.0 mi North 3.5 mph - N/A   Clear
9:15 PM 76.8 °F 31.6 °F 19% 29.91 in 10.0 mi North 3.5 mph - N/A   Clear
9:35 PM 75.0 °F 29.8 °F 19% 29.91 in 10.0 mi East 6.9 mph - N/A   Clear
9:55 PM 74.1 °F 28.4 °F 18% 29.92 in 10.0 mi NE 8.1 mph - N/A   Clear
10:15 PM 72.3 °F 28.9 °F 20% 29.92 in 10.0 mi Calm Calm - N/A   Clear
10:35 PM 71.1 °F 31.6 °F 23% 29.92 in 10.0 mi Calm Calm - N/A   Clear
10:55 PM 70.5 °F 32.0 °F 24% 29.93 in 10.0 mi ENE 5.8 mph - N/A   Clear
11:15 PM 67.3 °F 34.5 °F 30% 29.92 in 10.0 mi NNE 4.6 mph - N/A   Clear
11:35 PM 67.1 °F 35.8 °F 31% 29.93 in 10.0 mi Calm Calm - N/A   Clear
11:55 PM 65.7 °F 35.8 °F 33% 29.93 in 10.0 mi NNE 3.5 mph - N/A   Clear